,,Stat6,,Stat2,,Stat8,,Stat9,,Stat10,,Wind1,,Wind1,
time,status,PA1M_AVG,status,PR1M_SUM,status,RH1M_AVG,status,SR1M_AVG,status,TA1M_AVG,status,W1dAve1m,status,W1sAve1m,
2006-04-06, 00:00:00,VALID,917.59,VALID,0,VALID,100,VALID,-0.0679233,VALID,20.0112,VALID,61,VALID,0.840625,
2006-04-06, 00:01:00,VALID,917.587,VALID,0,VALID,100,VALID,-0.0509425,VALID,18.8888,VALID,52,VALID,0.893895,
2006-04-06, 00:02:00,VALID,917.578,VALID,0,VALID,100,VALID,-0.0169808,VALID,19.0919,VALID,47,VALID,1.02511,
2006-04-06, 00:03:00,VALID,917.568,VALID,0,VALID,100,VALID,0,VALID,19.341,VALID,46,VALID,0.942769,
2006-04-06, 00:04:00,VALID,917.564,VALID,0,VALID,100,VALID,-0.0339617,VALID,19.6497,VALID,49,VALID,0.946948,
2006-04-06, 00:05:00,VALID,917.567,VALID,0,VALID,100,VALID,-0.0679233,VALID,19.5405,VALID,55,VALID,0.939062,
2006-04-06, 00:06:00,VALID,917.561,VALID,0,VALID,100,VALID,-0.101885,VALID,20.1087,VALID,55,VALID,0.738621,
2006-04-06, 00:07:00,VALID,917.551,VALID,0,VALID,100,VALID,-0.101885,VALID,19.5444,VALID,58,VALID,0.875191,
2006-04-06, 00:08:00,VALID,917.558,VALID,0,VALID,100,VALID,-0.0169808,VALID,19.4868,VALID,60,VALID,0.954649,
2006-04-06, 00:09:00,VALID,917.539,VALID,0,VALID,100,VALID,-0.101885,VALID,19.8257,VALID,60,VALID,0.860328,
2006-04-06, 00:10:00,VALID,917.522,VALID,0,VALID,100,VALID,-0.152827,VALID,21.0374,VALID,60,VALID,0.707485,
2006-04-06, 00:11:00,VALID,917.491,VALID,0,VALID,100,VALID,-0.118866,VALID,19.3465,VALID,60,VALID,0.59048,
2006-04-06, 00:12:00,VALID,917.465,VALID,0,VALID,100,VALID,-0.118866,VALID,19.1003,VALID,60,VALID,0.528232,
2006-04-06, 00:13:00,VALID,917.445,VALID,0,VALID,100,VALID,-0.135847,VALID,20.072,VALID,60,VALID,0.64881,
2006-04-06, 00:14:00,VALID,917.442,VALID,0,VALID,100,VALID,-0.118866,VALID,20.0287,VALID,60,VALID,0.331944,
2006-04-06, 00:15:00,VALID,917.433,VALID,0,VALID,100,VALID,-0.0169808,VALID,20.0845,VALID,60,VALID,0.549479,
2006-04-06, 00:16:00,VALID,917.432,VALID,0,VALID,100,VALID,-0.101885,VALID,20.0564,VALID,60,VALID,0.381579,
2006-04-06, 00:17:00,VALID,917.434,VALID,0,VALID,100,VALID,-0.101885,VALID,18.8946,VALID,60,VALID,0.434956,
2006-04-06, 00:18:00,VALID,917.416,VALID,0,VALID,100,VALID,-0.101885,VALID,20.4041,VALID,60,VALID,0.377257,
2006-04-06, 00:19:00,VALID,917.407,VALID,0,VALID,100,VALID,-0.0679233,VALID,18.6109,VALID,60,VALID,0.205669,
2006-04-06, 00:20:00,VALID,917.401,VALID,0,VALID,100,VALID,0,VALID,19.9639,VALID,60,VALID,0.170201,
2006-04-06, 00:21:00,VALID,917.377,VALID,0,VALID,100,VALID,0,VALID,19.3123,VALID,60,VALID,0.366097,
2006-04-06, 00:22:00,VALID,917.355,VALID,0,VALID,100,VALID,-0.0339617,VALID,19.5654,VALID,60,VALID,0.459223,
2006-04-06, 00:23:00,VALID,917.332,VALID,0,VALID,100,VALID,-0.0509425,VALID,18.8369,VALID,77,VALID,0.631747,
2006-04-06, 00:24:00,VALID,917.32,VALID,0,VALID,100,VALID,-0.135847,VALID,19.5481,VALID,95,VALID,0.645008,
2006-04-06, 00:25:00,VALID,917.31,VALID,0,VALID,100,VALID,-0.152827,VALID,18.967,VALID,114,VALID,0.792492,
2006-04-06, 00:26:00,VALID,917.318,VALID,0,VALID,100,VALID,-0.118866,VALID,19.5439,VALID,124,VALID,0.768532,
2006-04-06, 00:27:00,VALID,917.329,VALID,0,VALID,100,VALID,-0.101885,VALID,20.6376,VALID,125,VALID,0.708841,
2006-04-06, 00:28:00,VALID,917.334,VALID,0,VALID,100,VALID,-0.135847,VALID,19.0411,VALID,126,VALID,0.800509,
2006-04-06, 00:29:00,VALID,917.341,VALID,0,VALID,100,VALID,-0.135847,VALID,18.9295,VALID,127,VALID,0.992369,
2006-04-06, 00:30:00,VALID,917.342,VALID,0,VALID,100,VALID,-0.135847,VALID,17.9628,VALID,127,VALID,0.827539,
2006-04-06, 00:31:00,VALID,917.334,VALID,0,VALID,100,VALID,-0.101885,VALID,18.9493,VALID,130,VALID,0.889027,
2006-04-06, 00:32:00,VALID,917.313,VALID,0,VALID,100,VALID,-0.101885,VALID,18.7853,VALID,129,VALID,0.581854,
2006-04-06, 00:33:00,VALID,917.306,VALID,0,VALID,100,VALID,-0.101885,VALID,18.1325,VALID,129,VALID,0.744565,
2006-04-06, 00:34:00,VALID,917.293,VALID,0,VALID,100,VALID,-0.0849042,VALID,19.703,VALID,129,VALID,0.567042,
2006-04-06, 00:35:00,VALID,917.288,VALID,0,VALID,100,VALID,-0.101885,VALID,18.8658,VALID,130,VALID,0.688045,
2006-04-06, 00:36:00,VALID,917.285,VALID,0,VALID,100,VALID,-0.101885,VALID,19.8739,VALID,133,VALID,0.492188,
2006-04-06, 00:37:00,VALID,917.286,VALID,0,VALID,100,VALID,-0.101885,VALID,19.669,VALID,122,VALID,0.577592,
2006-04-06, 00:38:00,VALID,917.283,VALID,0,VALID,100,VALID,-0.101885,VALID,19.3538,VALID,132,VALID,0.81436,
2006-04-06, 00:39:00,VALID,917.28,VALID,0,VALID,100,VALID,-0.135847,VALID,18.6577,VALID,134,VALID,0.782774,
2006-04-06, 00:40:00,VALID,917.268,VALID,0,VALID,100,VALID,-0.135847,VALID,19.3987,VALID,135,VALID,0.832564,
2006-04-06, 00:41:00,VALID,917.262,VALID,0,VALID,100,VALID,-0.101885,VALID,19.747,VALID,134,VALID,0.522461,
2006-04-06, 00:42:00,VALID,917.274,VALID,0,VALID,100,VALID,-0.101885,VALID,21.2504,VALID,135,VALID,0.882102,
2006-04-06, 00:43:00,VALID,917.282,VALID,0,VALID,100,VALID,-0.101885,VALID,18.2214,VALID,128,VALID,0.668679,
2006-04-06, 00:44:00,VALID,917.271,VALID,0,VALID,100,VALID,-0.118866,VALID,19.3134,VALID,121,VALID,0.90625,
2006-04-06, 00:45:00,VALID,917.268,VALID,0,VALID,100,VALID,-0.118866,VALID,18.9461,VALID,119,VALID,1.18253,
2006-04-06, 00:46:00,VALID,917.255,VALID,0,VALID,100,VALID,-0.0849042,VALID,19.5638,VALID,116,VALID,1.0506,
2006-04-06, 00:47:00,VALID,917.24,VALID,0,VALID,100,VALID,-0.101885,VALID,19.7836,VALID,123,VALID,0.918324,
2006-04-06, 00:48:00,VALID,917.221,VALID,0,VALID,100,VALID,-0.101885,VALID,20.3758,VALID,121,VALID,0.929492,
2006-04-06, 00:49:00,VALID,917.186,VALID,0,VALID,100,VALID,-0.101885,VALID,19.7548,VALID,118,VALID,1.01363,
2006-04-06, 00:50:00,VALID,917.165,VALID,0,VALID,100,VALID,0,VALID,20.6365,VALID,134,VALID,1.04514,
2006-04-06, 00:51:00,VALID,917.138,VALID,0,VALID,100,VALID,-0.0509425,VALID,19.629,VALID,125,VALID,1.25142,
2006-04-06, 00:52:00,VALID,917.125,VALID,0,VALID,100,VALID,-0.0509425,VALID,19.646,VALID,135,VALID,0.936228,
2006-04-06, 00:53:00,VALID,917.127,VALID,0,VALID,100,VALID,-0.101885,VALID,20.4294,VALID,157,VALID,0.403232,
2006-04-06, 00:54:00,VALID,917.093,VALID,0,VALID,100,VALID,-0.135847,VALID,20.7263,VALID,133,VALID,0.792411,
2006-04-06, 00:55:00,VALID,917.076,VALID,0,VALID,100,VALID,-0.135847,VALID,18.4403,VALID,133,VALID,0.449128,
2006-04-06, 00:56:00,VALID,917.056,VALID,0,VALID,100,VALID,-0.135847,VALID,20.5536,VALID,125,VALID,0.702083,
2006-04-06, 00:57:00,VALID,917.031,VALID,0,VALID,100,VALID,-0.101885,VALID,19.5878,VALID,128,VALID,0.976563,
2006-04-06, 00:58:00,VALID,917.029,VALID,0,VALID,100,VALID,-0.0339617,VALID,18.9162,VALID,133,VALID,0.989329,
2006-04-06, 00:59:00,VALID,917.002,VALID,0,VALID,100,VALID,-0.0849042,VALID,20.1047,VALID,127,VALID,0.784157,
2006-04-06, 01:00:00,VALID,917.002,VALID,0,VALID,100,VALID,0,VALID,20.3397,VALID,146,VALID,0.676736,
2006-04-06, 01:01:00,VALID,916.987,VALID,0,VALID,100,VALID,0,VALID,19.6159,VALID,139,VALID,1.00479,
2006-04-06, 01:02:00,VALID,916.983,VALID,0,VALID,100,VALID,-0.0339617,VALID,20.2301,VALID,140,VALID,1.07887,
2006-04-06, 01:03:00,VALID,916.955,VALID,0,VALID,100,VALID,-0.118866,VALID,19.0873,VALID,149,VALID,0.448583,
2006-04-06, 01:04:00,VALID,916.956,VALID,0,VALID,100,VALID,-0.101885,VALID,18.2211,VALID,131,VALID,0.909598,
2006-04-06, 01:05:00,VALID,916.947,VALID,0,VALID,100,VALID,0.0339617,VALID,19.7292,VALID,121,VALID,0.429497,
2006-04-06, 01:06:00,VALID,916.941,VALID,0,VALID,100,VALID,0.101885,VALID,18.4042,VALID,135,VALID,0.495046,
2006-04-06, 01:07:00,VALID,916.928,VALID,0,VALID,100,VALID,0.101885,VALID,20.4742,VALID,136,VALID,0.551711,
2006-04-06, 01:08:00,VALID,916.921,VALID,0,VALID,100,VALID,-0.0679233,VALID,21.3401,VALID,133,VALID,0.717188,
2006-04-06, 01:09:00,VALID,916.897,VALID,0,VALID,100,VALID,-0.0849042,VALID,20.5961,VALID,132,VALID,0.745094,
2006-04-06, 01:10:00,VALID,916.885,VALID,0,VALID,100,VALID,-0.101885,VALID,19.4709,VALID,129,VALID,0.752083,
2006-04-06, 01:11:00,VALID,916.886,VALID,0,VALID,100,VALID,-0.101885,VALID,19.4675,VALID,145,VALID,0.846294,
2006-04-06, 01:12:00,VALID,916.885,VALID,0,VALID,100,VALID,-0.0849042,VALID,19.572,VALID,142,VALID,1.20912,
2006-04-06, 01:13:00,VALID,916.886,VALID,0,VALID,100,VALID,-0.101885,VALID,20.9537,VALID,136,VALID,1.10099,
2006-04-06, 01:14:00,VALID,916.861,VALID,0,VALID,100,VALID,-0.0679233,VALID,18.9423,VALID,143,VALID,0.603711,
2006-04-06, 01:15:00,VALID,916.856,VALID,0,VALID,100,VALID,-0.101885,VALID,18.7607,VALID,153,VALID,0.594993,
2006-04-06, 01:16:00,VALID,916.846,VALID,0,VALID,100,VALID,-0.0849042,VALID,18.3412,VALID,160,VALID,0.452744,
2006-04-06, 01:17:00,VALID,916.831,VALID,0,VALID,100,VALID,-0.101885,VALID,20.0271,VALID,129,VALID,0.79859,
2006-04-06, 01:18:00,VALID,916.826,VALID,0,VALID,100,VALID,-0.186789,VALID,20.178,VALID,137,VALID,0.50332,
2006-04-06, 01:19:00,VALID,916.825,VALID,0,VALID,100,VALID,-0.101885,VALID,18.9662,VALID,145,VALID,0.379836,
2006-04-06, 01:20:00,VALID,916.819,VALID,0,VALID,100,VALID,-0.101885,VALID,19.8742,VALID,126,VALID,0.68532,
2006-04-06, 01:21:00,VALID,916.8,VALID,0,VALID,100,VALID,-0.101885,VALID,20.0908,VALID,136,VALID,0.883956,
2006-04-06, 01:22:00,VALID,916.783,VALID,0,VALID,100,VALID,-0.118866,VALID,20.411,VALID,127,VALID,0.707849,
2006-04-06, 01:23:00,VALID,916.735,VALID,0,VALID,100,VALID,-0.0849042,VALID,19.9732,VALID,121,VALID,1.24829,
2006-04-06, 01:24:00,VALID,916.704,VALID,0,VALID,100,VALID,-0.0169808,VALID,19.4063,VALID,127,VALID,1.51601,
2006-04-06, 01:25:00,VALID,916.673,VALID,0,VALID,100,VALID,-0.101885,VALID,19.8171,VALID,121,VALID,0.76617,
2006-04-06, 01:26:00,VALID,916.65,VALID,0,VALID,100,VALID,-0.118866,VALID,20.0525,VALID,126,VALID,1.44931,
2006-04-06, 01:27:00,VALID,916.629,VALID,0,VALID,100,VALID,-0.101885,VALID,19.4962,VALID,141,VALID,1.46021,
2006-04-06, 01:28:00,VALID,916.608,VALID,0,VALID,100,VALID,-0.118866,VALID,20.0425,VALID,142,VALID,1.76529,
2006-04-06, 01:29:00,VALID,916.59,VALID,0,VALID,100,VALID,-0.101885,VALID,19.6002,VALID,139,VALID,1.5092,
2006-04-06, 01:30:00,VALID,916.572,VALID,0,VALID,100,VALID,-0.118866,VALID,19.8716,VALID,145,VALID,1.53943,
2006-04-06, 01:31:00,VALID,916.561,VALID,0,VALID,100,VALID,-0.101885,VALID,20.4667,VALID,149,VALID,1.72168,
2006-04-06, 01:32:00,VALID,916.545,VALID,0,VALID,100,VALID,-0.101885,VALID,19.9315,VALID,148,VALID,1.24546,
2006-04-06, 01:33:00,VALID,916.546,VALID,0,VALID,100,VALID,-0.101885,VALID,20.3792,VALID,151,VALID,1.61519,
2006-04-06, 01:34:00,VALID,916.54,VALID,0,VALID,100,VALID,-0.101885,VALID,20.1269,VALID,146,VALID,0.759375,
2006-04-06, 01:35:00,VALID,916.535,VALID,0,VALID,100,VALID,-0.251571,VALID,20.2479,VALID,135,VALID,0.89589,
2006-04-06, 01:36:00,VALID,916.529,VALID,0,VALID,100,VALID,-1,VALID,19.3996,VALID,154,VALID,1.52882,
2006-04-06, 01:37:00,VALID,916.516,VALID,0,VALID,100,VALID,-1,VALID,19.2063,VALID,150,VALID,1.41787,
2006-04-06, 01:38:00,VALID,916.5,VALID,0,VALID,100,VALID,-0.850314,VALID,19.8079,VALID,123,VALID,1.28702,
2006-04-06, 01:39:00,VALID,916.474,VALID,0,VALID,100,VALID,-0.101885,VALID,20.376,VALID,137,VALID,1.68266,
2006-04-06, 01:40:00,VALID,916.44,VALID,0,VALID,100,VALID,-0.118866,VALID,20.5698,VALID,155,VALID,1.0279,
2006-04-06, 01:41:00,VALID,916.425,VALID,0,VALID,100,VALID,-0.135847,VALID,19.75,VALID,123,VALID,1.34794,
2006-04-06, 01:42:00,VALID,916.423,VALID,0,VALID,100,VALID,-0.0849042,VALID,19.6049,VALID,137,VALID,1.46799,
2006-04-06, 01:43:00,VALID,916.436,VALID,0,VALID,100,VALID,0,VALID,19.1377,VALID,138,VALID,1.1635,
2006-04-06, 01:44:00,VALID,916.458,VALID,0,VALID,100,VALID,-0.0169808,VALID,19.8162,VALID,124,VALID,1.27569,
2006-04-06, 01:45:00,VALID,916.487,VALID,0,VALID,100,VALID,-0.135847,VALID,19.8994,VALID,115,VALID,0.644176,
2006-04-06, 01:46:00,VALID,916.495,VALID,0,VALID,100,VALID,-0.118866,VALID,19.5074,VALID,115,VALID,1.18542,
2006-04-06, 01:47:00,VALID,916.515,VALID,0,VALID,100,VALID,-0.101885,VALID,19.7054,VALID,127,VALID,0.972128,
2006-04-06, 01:48:00,VALID,916.511,VALID,0,VALID,100,VALID,0,VALID,19.6861,VALID,139,VALID,1.11506,
2006-04-06, 01:49:00,VALID,916.498,VALID,0,VALID,100,VALID,-0.0679233,VALID,18.9379,VALID,115,VALID,1.06392,
2006-04-06, 01:50:00,VALID,916.485,VALID,0,VALID,100,VALID,-0.118866,VALID,19.6339,VALID,114,VALID,1.28398,
2006-04-06, 01:51:00,VALID,916.48,VALID,0,VALID,100,VALID,-0.118866,VALID,19.4281,VALID,110,VALID,0.895139,
2006-04-06, 01:52:00,VALID,916.463,VALID,0,VALID,100,VALID,-0.101885,VALID,19.603,VALID,107,VALID,0.721112,
2006-04-06, 01:53:00,VALID,916.45,VALID,0,VALID,100,VALID,-0.101885,VALID,20.0939,VALID,120,VALID,1.36254,
2006-04-06, 01:54:00,VALID,916.425,VALID,0,VALID,100,VALID,-0.118866,VALID,19.4972,VALID,119,VALID,1.33924,
2006-04-06, 01:55:00,VALID,916.417,VALID,0,VALID,100,VALID,-0.118866,VALID,20.6092,VALID,124,VALID,1.36814,
2006-04-06, 01:56:00,VALID,916.39,VALID,0,VALID,100,VALID,-0.118866,VALID,19.2786,VALID,126,VALID,1.56783,
2006-04-06, 01:57:00,VALID,916.393,VALID,0,VALID,100,VALID,-0.101885,VALID,19.8572,VALID,124,VALID,0.969893,
2006-04-06, 01:58:00,VALID,916.392,VALID,0,VALID,100,VALID,-0.101885,VALID,20.5829,VALID,137,VALID,0.677871,
2006-04-06, 01:59:00,VALID,916.398,VALID,0,VALID,100,VALID,-0.135847,VALID,19.8744,VALID,147,VALID,1.26372,
2006-04-06, 02:00:00,VALID,916.396,VALID,0,VALID,100,VALID,-0.135847,VALID,19.9566,VALID,143,VALID,0.796693,
2006-04-06, 02:01:00,VALID,916.391,VALID,0,VALID,100,VALID,-0.118866,VALID,19.5576,VALID,122,VALID,1.0218,
2006-04-06, 02:02:00,VALID,916.369,VALID,0,VALID,100,VALID,-0.118866,VALID,19.8985,VALID,146,VALID,1.25501,
2006-04-06, 02:03:00,VALID,916.35,VALID,0,VALID,100,VALID,-0.101885,VALID,18.1709,VALID,136,VALID,1.38542,
2006-04-06, 02:04:00,VALID,916.329,VALID,0,VALID,100,VALID,-0.101885,VALID,19.5387,VALID,143,VALID,1.82031,
2006-04-06, 02:05:00,VALID,916.315,VALID,0,VALID,100,VALID,-0.0849042,VALID,19.8593,VALID,138,VALID,1.73401,
2006-04-06, 02:06:00,VALID,916.311,VALID,0,VALID,100,VALID,-0.73459,VALID,20.4268,VALID,142,VALID,1.33984,
2006-04-06, 02:07:00,VALID,916.311,VALID,0,VALID,100,VALID,-0.833333,VALID,19.0685,VALID,135,VALID,1.69194,
2006-04-06, 02:08:00,VALID,916.313,VALID,0,VALID,100,VALID,-0.0509425,VALID,19.1909,VALID,137,VALID,1.56898,
2006-04-06, 02:09:00,VALID,916.313,VALID,0,VALID,100,VALID,-0.101885,VALID,20.4569,VALID,142,VALID,0.917225,
2006-04-06, 02:10:00,VALID,916.311,VALID,0,VALID,100,VALID,-0.101885,VALID,18.8953,VALID,125,VALID,0.757631,
2006-04-06, 02:11:00,VALID,916.293,VALID,0,VALID,100,VALID,-0.0679233,VALID,19.4105,VALID,111,VALID,0.930778,
2006-04-06, 02:12:00,VALID,916.277,VALID,0,VALID,100,VALID,-0.0679233,VALID,19.0028,VALID,104,VALID,0.967882,
2006-04-06, 02:13:00,VALID,916.257,VALID,0,VALID,100,VALID,-0.101885,VALID,18.4708,VALID,112,VALID,0.817645,
2006-04-06, 02:14:00,VALID,916.236,VALID,0,VALID,100,VALID,-0.101885,VALID,19.485,VALID,105,VALID,0.885298,
2006-04-06, 02:15:00,VALID,916.221,VALID,0,VALID,100,VALID,-0.101885,VALID,20.3384,VALID,107,VALID,1.05523,
2006-04-06, 02:16:00,VALID,916.21,VALID,0,VALID,100,VALID,-0.101885,VALID,20.4573,VALID,102,VALID,0.707667,
2006-04-06, 02:17:00,VALID,916.214,VALID,0,VALID,100,VALID,-0.0849042,VALID,18.1132,VALID,92,VALID,0.435547,
2006-04-06, 02:18:00,VALID,916.202,VALID,0,VALID,100,VALID,-0.101885,VALID,18.534,VALID,90,VALID,0.443359,
2006-04-06, 02:19:00,VALID,916.177,VALID,0,VALID,100,VALID,-0.101885,VALID,19.9427,VALID,86,VALID,0.618253,
2006-04-06, 02:20:00,VALID,916.155,VALID,0,VALID,100,VALID,-0.101885,VALID,19.908,VALID,79,VALID,0.442649,
2006-04-06, 02:21:00,VALID,916.144,VALID,0,VALID,100,VALID,-0.101885,VALID,20.4724,VALID,79,VALID,0.634301,
2006-04-06, 02:22:00,VALID,916.139,VALID,0,VALID,100,VALID,-0.101885,VALID,19.2618,VALID,79,VALID,0.721037,
2006-04-06, 02:23:00,VALID,916.154,VALID,0,VALID,100,VALID,-0.0849042,VALID,18.9066,VALID,79,VALID,0.50142,
2006-04-06, 02:24:00,VALID,916.157,VALID,0,VALID,100,VALID,-0.169808,VALID,20.2195,VALID,79,VALID,0.263587,
2006-04-06, 02:25:00,VALID,916.161,VALID,0,VALID,100,VALID,-0.101885,VALID,19.3948,VALID,79,VALID,0.523624,
2006-04-06, 02:26:00,VALID,916.156,VALID,0,VALID,100,VALID,-0.101885,VALID,18.9757,VALID,79,VALID,0.68423,
2006-04-06, 02:27:00,VALID,916.135,VALID,0,VALID,100,VALID,-0.101885,VALID,18.8053,VALID,74,VALID,0.710156,
2006-04-06, 02:28:00,VALID,916.104,VALID,0,VALID,100,VALID,-0.101885,VALID,19.7714,VALID,62,VALID,0.925967,
2006-04-06, 02:29:00,VALID,916.09,VALID,0,VALID,100,VALID,-0.0679233,VALID,20.6512,VALID,71,VALID,0.90532,
2006-04-06, 02:30:00,VALID,916.074,VALID,0,VALID,100,VALID,-0.101885,VALID,19.823,VALID,93,VALID,0.646307,
2006-04-06, 02:31:00,VALID,916.055,VALID,0,VALID,100,VALID,-0.135847,VALID,19.434,VALID,94,VALID,0.191602,
2006-04-06, 02:32:00,VALID,916.038,VALID,0,VALID,100,VALID,-0.101885,VALID,18.1873,VALID,94,VALID,0.639236,
2006-04-06, 02:33:00,VALID,916.023,VALID,0,VALID,100,VALID,-0.118866,VALID,19.8804,VALID,98,VALID,0.508539,
2006-04-06, 02:34:00,VALID,916.008,VALID,0,VALID,100,VALID,-0.118866,VALID,18.9697,VALID,120,VALID,0.796165,
2006-04-06, 02:35:00,VALID,915.984,VALID,0,VALID,100,VALID,-0.135847,VALID,19.8647,VALID,108,VALID,0.638719,
2006-04-06, 02:36:00,VALID,915.969,VALID,0,VALID,100,VALID,-0.118866,VALID,19.1987,VALID,94,VALID,0.733817,
2006-04-06, 02:37:00,VALID,915.963,VALID,0,VALID,100,VALID,-0.118866,VALID,19.4084,VALID,77,VALID,0.938072,
2006-04-06, 02:38:00,VALID,915.961,VALID,0,VALID,100,VALID,-0.101885,VALID,20.7109,VALID,74,VALID,0.609003,
2006-04-06, 02:39:00,VALID,915.945,VALID,0,VALID,100,VALID,-0.135847,VALID,20.0253,VALID,79,VALID,0.930575,
2006-04-06, 02:40:00,VALID,915.949,VALID,0,VALID,100,VALID,-0.135847,VALID,19.8717,VALID,67,VALID,0.933416,
2006-04-06, 02:41:00,VALID,915.933,VALID,0,VALID,100,VALID,-0.118866,VALID,19.1172,VALID,85,VALID,1.04215,
2006-04-06, 02:42:00,VALID,915.938,VALID,0,VALID,100,VALID,-0.118866,VALID,19.0319,VALID,99,VALID,1.0971,
2006-04-06, 02:43:00,VALID,915.925,VALID,0,VALID,100,VALID,-0.118866,VALID,20.0272,VALID,99,VALID,1.36663,
2006-04-06, 02:44:00,VALID,915.923,VALID,0,VALID,100,VALID,-0.118866,VALID,19.5604,VALID,106,VALID,0.851181,
2006-04-06, 02:45:00,VALID,915.909,VALID,0,VALID,100,VALID,-0.101885,VALID,20.8275,VALID,112,VALID,0.971058,
2006-04-06, 02:46:00,VALID,915.916,VALID,0,VALID,100,VALID,-0.135847,VALID,20.2644,VALID,121,VALID,1.10652,
2006-04-06, 02:47:00,VALID,915.915,VALID,0,VALID,100,VALID,-0.118866,VALID,18.4978,VALID,108,VALID,1.23576,
2006-04-06, 02:48:00,VALID,915.911,VALID,0,VALID,100,VALID,-0.101885,VALID,19.4118,VALID,114,VALID,0.909446,
2006-04-06, 02:49:00,VALID,915.902,VALID,0,VALID,100,VALID,-0.101885,VALID,18.9932,VALID,117,VALID,1.67624,
2006-04-06, 02:50:00,VALID,915.906,VALID,0,VALID,100,VALID,-0.101885,VALID,18.4643,VALID,116,VALID,1.33896,
2006-04-06, 02:51:00,VALID,915.918,VALID,0,VALID,100,VALID,-0.101885,VALID,19.4465,VALID,100,VALID,0.878348,
2006-04-06, 02:52:00,VALID,915.928,VALID,0,VALID,100,VALID,-0.152827,VALID,18.8151,VALID,122,VALID,1.24948,
2006-04-06, 02:53:00,VALID,915.935,VALID,0,VALID,100,VALID,-0.0849042,VALID,18.1141,VALID,121,VALID,1.18092,
2006-04-06, 02:54:00,VALID,915.925,VALID,0,VALID,100,VALID,-0.0339617,VALID,19.048,VALID,110,VALID,1.0266,
2006-04-06, 02:55:00,VALID,915.913,VALID,0,VALID,100,VALID,-0.0169808,VALID,18.5002,VALID,114,VALID,0.773247,
2006-04-06, 02:56:00,VALID,915.886,VALID,0,VALID,100,VALID,-0.0169808,VALID,19.4635,VALID,122,VALID,1.23171,
2006-04-06, 02:57:00,VALID,915.865,VALID,0,VALID,100,VALID,-0.118866,VALID,17.9194,VALID,108,VALID,1.29833,
2006-04-06, 02:58:00,VALID,915.834,VALID,0,VALID,100,VALID,-0.0849042,VALID,19.1092,VALID,116,VALID,1.32999,
2006-04-06, 02:59:00,VALID,915.808,VALID,0,VALID,100,VALID,-0.118866,VALID,19.1436,VALID,113,VALID,1.51772,
2006-04-06, 03:00:00,VALID,915.8,VALID,0,VALID,100,VALID,-0.118866,VALID,17.8566,VALID,121,VALID,1.30131,
2006-04-06, 03:01:00,VALID,915.789,VALID,0,VALID,100,VALID,-0.118866,VALID,19.371,VALID,117,VALID,1.30941,
2006-04-06, 03:02:00,VALID,915.784,VALID,0,VALID,100,VALID,-0.101885,VALID,19.5539,VALID,111,VALID,0.90532,
2006-04-06, 03:03:00,VALID,915.763,VALID,0,VALID,100,VALID,-0.101885,VALID,19.0822,VALID,105,VALID,1.40128,
2006-04-06, 03:04:00,VALID,915.76,VALID,0,VALID,100,VALID,-0.0849042,VALID,18.3548,VALID,117,VALID,1.30391,
2006-04-06, 03:05:00,VALID,915.75,VALID,0,VALID,100,VALID,-0.101885,VALID,18.695,VALID,117,VALID,1.52989,
2006-04-06, 03:06:00,VALID,915.747,VALID,0,VALID,100,VALID,-0.0849042,VALID,18.436,VALID,109,VALID,1.31432,
2006-04-06, 03:07:00,VALID,915.744,VALID,0,VALID,100,VALID,-0.0849042,VALID,19.7374,VALID,117,VALID,1.28162,
2006-04-06, 03:08:00,VALID,915.744,VALID,0,VALID,100,VALID,-0.101885,VALID,18.9715,VALID,131,VALID,0.946801,
2006-04-06, 03:09:00,VALID,915.742,VALID,0,VALID,100,VALID,-0.0849042,VALID,17.8989,VALID,135,VALID,1.0307,
2006-04-06, 03:10:00,VALID,915.738,VALID,0,VALID,100,VALID,-0.101885,VALID,20.0486,VALID,133,VALID,0.873547,
2006-04-06, 03:11:00,VALID,915.735,VALID,0,VALID,100,VALID,-0.101885,VALID,18.3321,VALID,142,VALID,0.971484,
2006-04-06, 03:12:00,VALID,915.722,VALID,0,VALID,100,VALID,-0.101885,VALID,19.3502,VALID,129,VALID,0.760417,
2006-04-06, 03:13:00,VALID,915.729,VALID,0,VALID,100,VALID,-0.0849042,VALID,18.0596,VALID,139,VALID,0.729539,
2006-04-06, 03:14:00,VALID,915.713,VALID,0,VALID,100,VALID,-0.118866,VALID,19.1473,VALID,139,VALID,0.859193,
2006-04-06, 03:15:00,VALID,915.714,VALID,0,VALID,100,VALID,-0.101885,VALID,19.8177,VALID,138,VALID,0.565163,
2006-04-06, 03:16:00,VALID,915.692,VALID,0,VALID,100,VALID,-0.101885,VALID,17.995,VALID,133,VALID,0.636418,
2006-04-06, 03:17:00,VALID,915.696,VALID,0,VALID,100,VALID,-0.118866,VALID,21.0692,VALID,133,VALID,0.294695,
2006-04-06, 03:18:00,VALID,915.691,VALID,0,VALID,100,VALID,-0.101885,VALID,18.7904,VALID,133,VALID,0.25799,
2006-04-06, 03:19:00,VALID,915.684,VALID,0,VALID,100,VALID,-0.101885,VALID,18.1725,VALID,133,VALID,0.655869,
2006-04-06, 03:20:00,VALID,915.683,VALID,0,VALID,100,VALID,0,VALID,19.0729,VALID,133,VALID,0.352653,
2006-04-06, 03:21:00,VALID,915.692,VALID,0,VALID,100,VALID,0,VALID,17.9393,VALID,133,VALID,0.206676,
2006-04-06, 03:22:00,VALID,915.675,VALID,0,VALID,100,VALID,-0.0169808,VALID,19.2979,VALID,133,VALID,0.317951,
2006-04-06, 03:23:00,VALID,915.676,VALID,0,VALID,100,VALID,-0.101885,VALID,19.1276,VALID,132,VALID,0.590511,
2006-04-06, 03:24:00,VALID,915.678,VALID,0,VALID,100,VALID,-0.101885,VALID,17.9893,VALID,132,VALID,0.772852,
2006-04-06, 03:25:00,VALID,915.684,VALID,0,VALID,100,VALID,-0.135847,VALID,19.0819,VALID,129,VALID,0.777166,
2006-04-06, 03:26:00,VALID,915.696,VALID,0,VALID,100,VALID,-0.101885,VALID,19.4152,VALID,126,VALID,0.772727,
2006-04-06, 03:27:00,VALID,915.705,VALID,0,VALID,100,VALID,-0.101885,VALID,18.4249,VALID,122,VALID,0.772529,
2006-04-06, 03:28:00,VALID,915.722,VALID,0,VALID,100,VALID,-0.118866,VALID,18.4594,VALID,119,VALID,0.605769,
2006-04-06, 03:29:00,VALID,915.745,VALID,0,VALID,100,VALID,-0.118866,VALID,18.4741,VALID,120,VALID,0.0724927,
2006-04-06, 03:30:00,VALID,915.751,VALID,0,VALID,100,VALID,-0.118866,VALID,18.6037,VALID,120,VALID,0.0123857,
2006-04-06, 03:31:00,VALID,915.753,VALID,0,VALID,100,VALID,-0.135847,VALID,19.9958,VALID,113,VALID,0.443788,
2006-04-06, 03:32:00,VALID,915.751,VALID,0,VALID,100,VALID,-0.118866,VALID,19.7809,VALID,110,VALID,0.387962,
2006-04-06, 03:33:00,VALID,915.747,VALID,0,VALID,100,VALID,-0.101885,VALID,18.0488,VALID,110,VALID,0.275484,
2006-04-06, 03:34:00,VALID,915.749,VALID,0,VALID,100,VALID,-0.101885,VALID,18.9239,VALID,110,VALID,0.240916,
2006-04-06, 03:35:00,VALID,915.745,VALID,0,VALID,100,VALID,-0.101885,VALID,19.7238,VALID,111,VALID,0.564135,
2006-04-06, 03:36:00,VALID,915.755,VALID,0,VALID,100,VALID,-0.118866,VALID,18.3023,VALID,112,VALID,0.564732,
2006-04-06, 03:37:00,VALID,915.755,VALID,0,VALID,100,VALID,-0.118866,VALID,17.9884,VALID,112,VALID,0.54851,
2006-04-06, 03:38:00,VALID,915.767,VALID,0,VALID,100,VALID,-0.101885,VALID,18.3321,VALID,111,VALID,0.711496,
2006-04-06, 03:39:00,VALID,915.768,VALID,0,VALID,100,VALID,-0.101885,VALID,18.7368,VALID,111,VALID,0.181108,